• Em Portugal
  • Lista de países
  • Para 7 dias
  • Temperatura da água
  • Mapas de satélite
  • Mapa do tempo
  • Widgets de tempo
  • user-avatar
    Iniciar Sessão

    Previsão horária em Canillo

    Hoje, 23 Maio, Quarta-feira

    Tempo Temperatura Precipitação Vento Pressão Humidade
    00:00 +7°C° 0 mm 1 m/s 619 mmHg 90%
    01:00 +7°C° 0 mm 1 m/s 619 mmHg 90%
    02:00 +6°C° 0 mm 1 m/s 618 mmHg 91%
    03:00 +6°C° 0 mm 1 m/s 618 mmHg 91%
    04:00 +7°C° 0 mm 1 m/s 619 mmHg 89%
    05:00 +8°C° 0 mm 1 m/s 619 mmHg 87%
    06:00 +9°C° 0 mm 1 m/s 620 mmHg 83%
    07:00 +10°C° 0,2 mm 1 m/s 620 mmHg 79%
    08:00 +11°C° 0,2 mm 1 m/s 621 mmHg 75%
    09:00 +12°C° 0,2 mm 1 m/s 622 mmHg 70%
    10:00 +13°C° 0,6 mm 1 m/s 622 mmHg 69%
    11:00 +13°C° 0,6 mm 1 m/s 622 mmHg 67%
    12:00 +14°C° 0,6 mm 2 m/s 622 mmHg 65%
    13:00 +14°C° 0,5 mm 2 m/s 622 mmHg 65%
    14:00 +14°C° 0,5 mm 2 m/s 622 mmHg 65%
    15:00 +14°C° 0,5 mm 2 m/s 621 mmHg 65%
    16:00 +14°C° 0,8 mm 2 m/s 621 mmHg 70%
    17:00 +13°C° 0,8 mm 1 m/s 621 mmHg 75%
    18:00 +12°C° 0,8 mm 1 m/s 621 mmHg 81%
    19:00 +11°C° 0,2 mm 1 m/s 620 mmHg 84%
    20:00 +10°C° 0,2 mm 1 m/s 620 mmHg 87%
    21:00 +8°C° 0,2 mm 1 m/s 620 mmHg 90%
    22:00 +8°C° 0,3 mm 1 m/s 620 mmHg 90%
    23:00 +8°C° 0,3 mm 1 m/s 620 mmHg 91%

    Amanhã, 24 Maio, Quinta-feira

    Tempo Temperatura Precipitação Vento Pressão Humidade
    00:00 +8°C° 0,3 mm 1 m/s 620 mmHg 91%
    01:00 +8°C° 0,1 mm 1 m/s 619 mmHg 90%
    02:00 +7°C° 0,1 mm 1 m/s 619 mmHg 90%
    03:00 +7°C° 0,1 mm 1 m/s 619 mmHg 89%
    04:00 +8°C° 0 mm 1 m/s 619 mmHg 87%
    05:00 +9°C° 0 mm 1 m/s 620 mmHg 85%
    06:00 +9°C° 0 mm 1 m/s 620 mmHg 83%
    07:00 +11°C° 0 mm 1 m/s 621 mmHg 75%
    08:00 +13°C° 0 mm 1 m/s 622 mmHg 68%
    09:00 +15°C° 0 mm 2 m/s 623 mmHg 60%
    10:00 +16°C° 0,1 mm 2 m/s 623 mmHg 56%
    11:00 +17°C° 0,1 mm 3 m/s 623 mmHg 53%
    12:00 +18°C° 0,1 mm 3 m/s 623 mmHg 50%
    13:00 +18°C° 0,2 mm 3 m/s 623 mmHg 51%
    14:00 +18°C° 0,2 mm 3 m/s 623 mmHg 51%
    15:00 +18°C° 0,2 mm 3 m/s 623 mmHg 51%
    16:00 +17°C° 0,1 mm 3 m/s 622 mmHg 56%
    17:00 +16°C° 0,1 mm 2 m/s 622 mmHg 61%
    18:00 +15°C° 0,1 mm 2 m/s 621 mmHg 66%
    19:00 +13°C° 0 mm 2 m/s 621 mmHg 70%
    20:00 +11°C° 0 mm 1 m/s 620 mmHg 74%
    21:00 +10°C° 0 mm 1 m/s 620 mmHg 78%
    22:00 +9°C° 0 mm 1 m/s 620 mmHg 75%
    23:00 +9°C° 0 mm 1 m/s 619 mmHg 71%

    Depois de amanhã, 25 Maio, Sexta-feira

    Tempo Temperatura Precipitação Vento Pressão Humidade
    00:00 +8°C° 0 mm 2 m/s 619 mmHg 68%
    01:00 +8°C° 0 mm 2 m/s 619 mmHg 66%
    02:00 +8°C° 0 mm 2 m/s 619 mmHg 63%
    03:00 +7°C° 0 mm 2 m/s 619 mmHg 61%
    04:00 +8°C° 0 mm 2 m/s 619 mmHg 62%
    05:00 +9°C° 0 mm 2 m/s 619 mmHg 62%
    06:00 +10°C° 0 mm 2 m/s 620 mmHg 63%
    07:00 +13°C° 0,1 mm 2 m/s 620 mmHg 57%
    08:00 +14°C° 0,1 mm 3 m/s 621 mmHg 51%
    09:00 +17°C° 0,1 mm 3 m/s 622 mmHg 46%
    10:00 +18°C° 0 mm 4 m/s 622 mmHg 43%
    11:00 +19°C° 0 mm 4 m/s 622 mmHg 40%
    12:00 +20°C° 0 mm 5 m/s 623 mmHg 37%
    13:00 +20°C° 0 mm 5 m/s 622 mmHg 38%
    14:00 +20°C° 0 mm 5 m/s 622 mmHg 38%
    15:00 +20°C° 0 mm 5 m/s 622 mmHg 38%
    16:00 +18°C° 0 mm 4 m/s 621 mmHg 43%
    17:00 +17°C° 0 mm 4 m/s 620 mmHg 49%
    18:00 +14°C° 0 mm 3 m/s 620 mmHg 54%
    19:00 +13°C° 0 mm 3 m/s 619 mmHg 56%
    20:00 +12°C° 0 mm 2 m/s 619 mmHg 58%
    21:00 +9°C° 0 mm 2 m/s 618 mmHg 61%
    22:00 +9°C° 0 mm 2 m/s 618 mmHg 61%
    23:00 +8°C° 0 mm 2 m/s 618 mmHg 61%

    26 Maio, Sábado

    Tempo Temperatura Precipitação Vento Pressão Humidade
    00:00 +8°C° 0 mm 2 m/s 618 mmHg 61%
    01:00 +8°C° 0 mm 2 m/s 618 mmHg 64%
    02:00 +8°C° 0 mm 2 m/s 618 mmHg 67%
    03:00 +8°C° 0 mm 2 m/s 618 mmHg 70%
    04:00 +8°C° 0 mm 2 m/s 618 mmHg 69%
    05:00 +9°C° 0 mm 2 m/s 618 mmHg 69%
    06:00 +10°C° 0 mm 2 m/s 619 mmHg 68%
    07:00 +12°C° 0 mm 3 m/s 620 mmHg 61%
    08:00 +14°C° 0 mm 4 m/s 621 mmHg 54%
    09:00 +17°C° 0 mm 4 m/s 621 mmHg 47%
    10:00 +17°C° 0 mm 5 m/s 622 mmHg 44%
    11:00 +20°C° 0 mm 5 m/s 622 mmHg 42%
    12:00 +21°C° 0 mm 5 m/s 622 mmHg 39%
    13:00 +20°C° 0 mm 5 m/s 622 mmHg 40%
    14:00 +20°C° 0 mm 5 m/s 622 mmHg 42%
    15:00 +19°C° 0 mm 4 m/s 622 mmHg 44%
    16:00 +18°C° 0 mm 4 m/s 621 mmHg 49%
    17:00 +17°C° 0 mm 3 m/s 621 mmHg 55%
    18:00 +14°C° 0 mm 3 m/s 620 mmHg 61%
    19:00 +13°C° 0 mm 3 m/s 620 mmHg 65%
    20:00 +12°C° 0 mm 2 m/s 619 mmHg 70%
    21:00 +9°C° 0 mm 2 m/s 619 mmHg 74%
    22:00 +9°C° 0 mm 2 m/s 619 mmHg 74%
    23:00 +8°C° 0 mm 2 m/s 619 mmHg 73%

    27 Maio, Domingo

    Tempo Temperatura Precipitação Vento Pressão Humidade
    00:00 +8°C° 0 mm 2 m/s 619 mmHg 72%
    01:00 +8°C° 0 mm 2 m/s 618 mmHg 74%
    02:00 +8°C° 0 mm 2 m/s 618 mmHg 75%
    03:00 +8°C° 0 mm 1 m/s 618 mmHg 76%
    04:00 +9°C° 0 mm 1 m/s 619 mmHg 74%
    05:00 +10°C° 0 mm 1 m/s 619 mmHg 73%
    06:00 +11°C° 0 mm 1 m/s 619 mmHg 71%
    07:00 +14°C° 0 mm 1 m/s 620 mmHg 63%
    08:00 +16°C° 0 mm 2 m/s 621 mmHg 54%
    09:00 +18°C° 0 mm 2 m/s 622 mmHg 46%
    10:00 +19°C° 0 mm 2 m/s 623 mmHg 45%
    11:00 +19°C° 0 mm 3 m/s 623 mmHg 44%
    12:00 +20°C° 0 mm 3 m/s 623 mmHg 43%
    13:00 +20°C° 0,5 mm 3 m/s 623 mmHg 48%
    14:00 +19°C° 0,5 mm 3 m/s 622 mmHg 52%
    15:00 +19°C° 0,5 mm 3 m/s 622 mmHg 56%
    16:00 +18°C° 0,7 mm 2 m/s 621 mmHg 61%
    17:00 +17°C° 0,7 mm 2 m/s 621 mmHg 67%
    18:00 +16°C° 0,7 mm 2 m/s 620 mmHg 72%
    19:00 +14°C° 0,2 mm 1 m/s 620 mmHg 75%
    20:00 +13°C° 0,2 mm 1 m/s 619 mmHg 79%
    21:00 +11°C° 0,2 mm 1 m/s 619 mmHg 82%
    22:00 +11°C° 0,6 mm 1 m/s 619 mmHg 83%
    23:00 +11°C° 0,6 mm 1 m/s 619 mmHg 85%

    28 Maio, Segunda-feira

    Tempo Temperatura Precipitação Vento Pressão Humidade
    00:00 +9°C° 0,6 mm 2 m/s 619 mmHg 86%
    01:00 +10°C° 1,3 mm 1 m/s 618 mmHg 87%
    02:00 +10°C° 1,3 mm 1 m/s 618 mmHg 89%
    03:00 +10°C° 1,3 mm 1 m/s 618 mmHg 90%
    04:00 +10°C° 1,5 mm 1 m/s 618 mmHg 91%
    05:00 +10°C° 1,5 mm 1 m/s 618 mmHg 91%
    06:00 +10°C° 1,5 mm 1 m/s 618 mmHg 92%
    07:00 +11°C° 0,8 mm 1 m/s 618 mmHg 90%
    08:00 +10°C° 0,8 mm 2 m/s 618 mmHg 88%
    09:00 +12°C° 0,8 mm 2 m/s 618 mmHg 86%
    10:00 +13°C° 0,8 mm 2 m/s 619 mmHg 83%
    11:00 +12°C° 0,8 mm 3 m/s 619 mmHg 80%
    12:00 +13°C° 0,8 mm 3 m/s 619 mmHg 77%
    13:00 +13°C° 1 mm 3 m/s 619 mmHg 77%
    14:00 +13°C° 1 mm 3 m/s 619 mmHg 77%
    15:00 +14°C° 1 mm 2 m/s 618 mmHg 77%
    16:00 +14°C° 0,5 mm 2 m/s 618 mmHg 79%
    17:00 +13°C° 0,5 mm 2 m/s 618 mmHg 81%
    18:00 +13°C° 0,5 mm 2 m/s 618 mmHg 84%
    19:00 +10°C° 0,1 mm 2 m/s 618 mmHg 88%
    20:00 +10°C° 0,1 mm 1 m/s 618 mmHg 92%
    21:00 +9°C° 0,1 mm 1 m/s 617 mmHg 97%
    22:00 +8°C° 0 mm 1 m/s 617 mmHg 96%
    23:00 +7°C° 0 mm 0 m/s 617 mmHg 96%
    Mostrar mais